Location: Holyhead Bay
(53.3667°N, 4.6667°W)
Time: 19:03:10
(UTC+00:00)

Cosmos 2263 - Pass Details

Date: 24 November 2020
Orbit: 833 x 863 km, 70.9° (Epoch: 16 January)

Event Time Altitude Azimuth Distance (km) Brightness Sun altitude
Rises 18:40:33 0° 328° (NNW) 3,403 7.7 -21.7°
Reaches altitude 10° 18:43:06 10° 334° (NNW) 2,462 6.9 -22.0°
Maximum altitude 18:48:35 50° 49° (NE) 1,060 4.3 -22.9°
Enters shadow 18:48:49 50° 58° (ENE) 1,064 4.3 -22.9°
